Location: Maiden
(35.5760°N, 81.2120°W)
Time: 03:08:51
(UTC-04:00)

Cosmos 1515 Rocket - Pass Details

Date: 02 August 2020
Orbit: 607 x 629 km, 82.5° (Epoch: 11 August)

Event Time Altitude Azimuth Distance (km) Brightness Sun altitude
Rises 21:40:35 0° 357° (N) 2,913 7.6 -14.0°
Reaches altitude 10° 21:42:51 10° 1° (N) 2,005 6.6 -14.4°
Maximum altitude 21:47:14 61° 81° (E) 714 3.6 -15.1°
Enters shadow 21:49:58 22° 157° (SSE) 1,364 4.8 -15.5°
